Location: Heisler
(52.6701°N, 112.2239°W)
Time: 14:19:07
(UTC+00:00)

Envisat - Pass Details

Date: 02 December 2021
Orbit: 764 x 766 km, 98.2° (Epoch: 26 January)

Event Time Altitude Azimuth Distance (km) Brightness Sun altitude
Rises 01:24:30 0° 229° (SW) 3,226 7.3 -18.2°
Reaches altitude 10° 01:29:29 10° 272° (W) 2,310 6.6 -19.0°
Maximum altitude 01:30:05 10° 279° (W) 2,298 6.5 -19.1°
Drops below altitude 10° 01:30:40 10° 285° (WNW) 2,312 6.4 -19.1°
Sets 01:35:42 0° 329° (NNW) 3,247 6.5 -19.9°
